Weather History for New Philadelphia, OH

Change the Weather History Date:

Thursday, January 24, 2013

  Actual Average Record
Temperature  
Mean Temperature 17 °F 29 °F  
Max Temperature 24 °F 38 °F 65 °F (1967)
Min Temperature 10 °F 21 °F -17 °F (1963)
Degree Days  
Heating Degree Days 48 36  
Month to date heating degree days 828 864  
Since 1 July heating degree days 2928 3025  
Cooling Degree Days 0 0  
Month to date cooling degree days 0 0  
Year to date cooling degree days 0 0  
Moisture  
Dew Point 7 °F    
Average Humidity 62    
Maximum Humidity 84    
Minimum Humidity 39    
Precipitation  
Precipitation T in 0.08 in 0.64 in (1950)
Month to date precipitation 0.58 2.03  
Year to date precipitation 0.58 2.03  
Sea Level Pressure  
Sea Level Pressure 30.39 in    
Wind  
Wind Speed 5 mph (NW)    
Max Wind Speed 14 mph    
Max Gust Speed 18 mph    
Visibility 8 miles    
Events Snow    
T = Trace of Precipitation, MM = Missing Value Source: NWS Daily Summary

Daily Weather History Graph

Daily Weather History Graph

Search for Another Location

Airport:

Trip Planner

Search our weather history database for the weather conditions in past years. The results will help you decide how hot, cold, wet, or windy it might be!

Date:

Astronomy

Jan. 24, 2013 Rise Set
Actual Time 7:41 AM EST 5:34 PM EST
Civil Twilight 7:12 AM EST 6:03 PM EST
Nautical Twilight 6:39 AM EST 6:36 PM EST
Astronomical Twilight 6:06 AM EST 7:09 PM EST
Moon 3:35 PM EST (1/24) 5:38 AM EST (1/24)
Length of Visible Light 10h 51m
Length of Day
9h 52m
Waxing Gibbous, 94% of the Moon is Illuminated
Jan 24
Waxing Gibbous
Jan 26
Full
Feb 3
Last Quarter
Feb 10
New
Feb 17
First Quarter

Hourly Weather History & Observations

Time (EST) Temp. Windchill Dew Point Humidity Pressure Visibility Wind Dir Wind Speed Gust Speed Precip Events Conditions
12:02 AM 17.6 °F - 12.2 °F 79% 30.06 in 3.0 mi Calm Calm - 0.00 in Snow Light Snow
12:37 AM 17.6 °F - 12.2 °F 79% 30.06 in 1.8 mi Calm Calm - 0.00 in Snow Light Snow
12:53 AM 17.1 °F - 12.0 °F 81% 30.11 in 2.0 mi Calm Calm - 0.00 in Snow Light Snow
1:00 AM 17.6 °F - 12.2 °F 79% 30.06 in 2.5 mi Calm Calm - 0.00 in Snow Light Snow
1:33 AM 15.8 °F - 12.2 °F 86% 30.06 in 4.0 mi Calm Calm - 0.00 in   Overcast
1:53 AM 16.0 °F - 10.9 °F 81% 30.12 in 6.0 mi Calm Calm - 0.00 in   Haze
2:53 AM 16.0 °F - 12.0 °F 84% 30.16 in 3.0 mi Calm Calm - 0.00 in Snow Light Snow
3:53 AM 16.0 °F 10.4 °F 10.9 °F 81% 30.19 in 6.0 mi NNW 3.5 mph - 0.00 in   Haze
4:53 AM 14.0 °F 5.1 °F 9.0 °F 80% 30.23 in 10.0 mi NW 5.8 mph - N/A   Partly Cloudy
5:53 AM 12.9 °F - 8.1 °F 81% 30.28 in 10.0 mi Calm Calm - N/A   Clear
6:34 AM 12.2 °F 6.1 °F 6.8 °F 79% 30.26 in 9.0 mi NW 3.5 mph - N/A   Mostly Cloudy
6:42 AM 12.2 °F - 6.8 °F 79% 30.27 in 10.0 mi Calm Calm - N/A   Scattered Clouds
6:53 AM 12.0 °F 5.9 °F 7.0 °F 80% 30.34 in 10.0 mi NW 3.5 mph - N/A   Partly Cloudy
7:53 AM 12.9 °F 5.2 °F 7.0 °F 77% 30.39 in 10.0 mi WNW 4.6 mph - N/A   Partly Cloudy
8:53 AM 15.1 °F 3.3 °F 7.0 °F 70% 30.43 in 10.0 mi WNW 9.2 mph - N/A   Clear
9:53 AM 16.0 °F 5.3 °F 7.0 °F 68% 30.47 in 10.0 mi WNW 8.1 mph - N/A   Mostly Cloudy
10:43 AM 17.6 °F 7.3 °F 8.6 °F 68% 30.46 in 10.0 mi WNW 8.1 mph - N/A   Partly Cloudy
10:53 AM 18.0 °F 7.7 °F 8.1 °F 65% 30.52 in 10.0 mi WNW 8.1 mph - N/A   Partly Cloudy
11:48 AM 19.4 °F 6.6 °F 10.4 °F 68% 30.49 in 10.0 mi NW 12.7 mph - N/A   Mostly Cloudy
11:53 AM 19.9 °F 7.9 °F 9.0 °F 62% 30.54 in 10.0 mi NW 11.5 mph - N/A   Overcast
12:44 PM 19.4 °F 9.5 °F 6.8 °F 58% 30.49 in 10.0 mi NW 8.1 mph - N/A   Mostly Cloudy
12:53 PM 21.0 °F 11.4 °F 7.0 °F 55% 30.53 in 10.0 mi North 8.1 mph - N/A   Mostly Cloudy
1:53 PM 23.0 °F 13.9 °F 6.1 °F 48% 30.52 in 10.0 mi NW 8.1 mph - N/A   Mostly Cloudy
2:53 PM 21.0 °F 11.4 °F 3.0 °F 46% 30.54 in 10.0 mi North 8.1 mph - N/A   Mostly Cloudy
3:53 PM 21.9 °F 11.0 °F -0.0 °F 38% 30.55 in 10.0 mi North 10.4 mph - N/A   Partly Cloudy
4:53 PM 21.0 °F 11.4 °F 1.0 °F 42% 30.56 in 10.0 mi NNW 8.1 mph - N/A   Partly Cloudy
5:53 PM 19.0 °F 10.0 °F -0.0 °F 43% 30.58 in 10.0 mi North 6.9 mph - N/A   Clear
6:53 PM 17.1 °F 11.7 °F -0.0 °F 47% 30.59 in 10.0 mi North 3.5 mph - N/A   Clear
7:53 PM 12.9 °F - 1.9 °F 62% 30.60 in 10.0 mi Calm Calm - N/A   Clear
8:53 PM 12.0 °F - 1.9 °F 64% 30.59 in 10.0 mi Calm Calm - N/A   Clear
9:53 PM 10.0 °F - 1.9 °F 70% 30.58 in 10.0 mi Calm Calm - N/A   Clear
10:53 PM 12.0 °F - 3.9 °F 70% 30.57 in 10.0 mi Calm Calm - N/A   Clear
11:53 PM 12.9 °F - 5.0 °F 71% 30.55 in 10.0 mi Calm Calm - N/A   Clear